Weather History for Goldsboro, NC

Change the Weather History Date:

Tuesday, May 7, 2013

  Actual Average Record
Temperature  
Mean Temperature 62 °F -  
Max Temperature 73 °F 79 °F 89 °F (2000)
Min Temperature 51 °F 57 °F 44 °F (2005)
Degree Days  
Heating Degree Days 3    
Growing Degree Days 12 (Base 50)    
Moisture  
Dew Point 52 °F    
Average Humidity 74    
Maximum Humidity 100    
Minimum Humidity 41    
Precipitation  
Precipitation 0.00 in - - ()
Sea Level Pressure  
Sea Level Pressure 29.90 in    
Wind  
Wind Speed 4 mph (SSW)    
Max Wind Speed 14 mph    
Max Gust Speed 22 mph    
Visibility 9 miles    
Events Rain    
Averages and records for this station are not official NWS values.
T = Trace of Precipitation, MM = Missing Value Source: NWS Daily Summary

Daily Weather History Graph

Daily Weather History Graph

Search for Another Location

Airport:

Trip Planner

Search our weather history database for the weather conditions in past years. The results will help you decide how hot, cold, wet, or windy it might be!

Date:

Astronomy

May. 07, 2013 Rise Set
Actual Time 6:14 AM EDT 8:03 PM EDT
Civil Twilight 5:46 AM EDT 8:30 PM EDT
Nautical Twilight 5:13 AM EDT 9:04 PM EDT
Astronomical Twilight 4:37 AM EDT 9:39 PM EDT
Moon 4:42 AM EDT (5/7) 6:04 PM EDT (5/7)
Length of Visible Light 14h 44m
Length of Day
13h 48m
Waning Crescent, 5% of the Moon is Illuminated
May 7
Waning Crescent
May 9
New
May 18
First Quarter
May 25
Full
May 31
Last Quarter

Hourly Weather History & Observations

Time (EDT) Temp. Dew Point Humidity Pressure Visibility Wind Dir Wind Speed Gust Speed Precip Events Conditions
12:58 AM 61.2 °F 59.2 °F 93% 29.91 in 10.0 mi Variable 2.3 mph - N/A   Overcast
1:17 AM 60.8 °F 59.0 °F 94% 29.90 in 10.0 mi SE 3.5 mph - N/A Rain Light Rain
1:31 AM 60.8 °F 57.2 °F 88% 29.89 in 10.0 mi SE 5.8 mph - N/A   Overcast
1:58 AM 60.6 °F 57.0 °F 88% 29.89 in 10.0 mi SE 2.3 mph - 0.00 in   Overcast
2:58 AM 59.5 °F 55.2 °F 86% 29.86 in 10.0 mi South 4.6 mph - N/A   Scattered Clouds
3:58 AM 57.9 °F 54.3 °F 88% 29.86 in 10.0 mi WNW 1.2 mph - N/A   Mostly Cloudy
4:58 AM 53.8 °F 51.8 °F 93% 29.87 in 10.0 mi East 1.2 mph - N/A   Clear
5:43 AM 51.8 °F 51.8 °F 100% 29.86 in 1.2 mi Calm Calm - N/A   Clear
5:46 AM 51.8 °F 51.8 °F 100% 29.87 in 1.0 mi Calm Calm - N/A   Partly Cloudy
5:49 AM 51.8 °F 51.8 °F 100% 29.86 in 1.2 mi Calm Calm - N/A   Partly Cloudy
5:52 AM 51.8 °F 51.8 °F 100% 29.87 in 2.0 mi Calm Calm - N/A   Partly Cloudy
5:55 AM 51.8 °F 51.8 °F 100% 29.86 in 8.0 mi Calm Calm - N/A   Scattered Clouds
5:58 AM 52.5 °F 51.8 °F 97% 29.87 in 10.0 mi NNE 1.2 mph - N/A   Scattered Clouds
6:58 AM 52.5 °F 51.4 °F 96% 29.89 in 10.0 mi Calm Calm - N/A   Partly Cloudy
7:58 AM 57.2 °F 54.9 °F 92% 29.91 in 10.0 mi South 4.6 mph - N/A   Overcast
8:58 AM 58.6 °F 55.6 °F 90% 29.92 in 10.0 mi SSW 3.5 mph - N/A   Mostly Cloudy
9:58 AM 62.4 °F 55.4 °F 78% 29.92 in 10.0 mi Variable 1.2 mph - N/A   Mostly Cloudy
10:58 AM 66.2 °F 54.7 °F 66% 29.92 in 10.0 mi South 4.6 mph - N/A   Mostly Cloudy
11:58 AM 68.7 °F 51.1 °F 53% 29.94 in 10.0 mi WSW 8.1 mph - N/A   Mostly Cloudy
12:58 PM 71.1 °F 49.8 °F 47% 29.93 in 10.0 mi SW 6.9 mph 18.4 mph N/A   Mostly Cloudy
1:36 PM 71.6 °F 48.2 °F 43% 29.90 in 10.0 mi SW 12.7 mph - N/A   Mostly Cloudy
1:58 PM 72.1 °F 48.0 °F 42% 29.91 in 10.0 mi SSW 13.8 mph 21.9 mph N/A   Partly Cloudy
2:58 PM 71.1 °F 47.8 °F 44% 29.89 in 10.0 mi SW 10.4 mph - N/A   Mostly Cloudy
3:58 PM 73.2 °F 47.8 °F 41% 29.87 in 10.0 mi SW 12.7 mph - N/A   Mostly Cloudy
4:58 PM 70.0 °F 46.8 °F 43% 29.89 in 10.0 mi SW 12.7 mph - N/A   Overcast
5:58 PM 68.4 °F 47.7 °F 48% 29.89 in 10.0 mi SSW 5.8 mph - N/A   Overcast
6:05 PM 69.8 °F 48.2 °F 46% 29.88 in 10.0 mi SSW 6.9 mph - N/A   Mostly Cloudy
6:58 PM 68.9 °F 46.8 °F 45% 29.89 in 10.0 mi SW 6.9 mph - N/A   Clear
7:58 PM 65.3 °F 48.0 °F 54% 29.91 in 10.0 mi SSW 8.1 mph - N/A   Clear
8:58 PM 61.3 °F 50.4 °F 67% 29.93 in 10.0 mi South 4.6 mph - N/A   Clear
9:58 PM 60.4 °F 51.4 °F 72% 29.95 in 10.0 mi SW 3.5 mph - N/A   Mostly Cloudy
10:58 PM 58.3 °F 50.4 °F 75% 29.96 in 10.0 mi SE 4.6 mph - N/A   Clear
11:58 PM 57.4 °F 50.5 °F 78% 29.96 in 10.0 mi South 3.5 mph - N/A   Clear